sat.trackr.live / text

‹ back to catalog

STARLINK-34512

NORAD 64419 · 2025-129H

PAYLOAD ACTIVE UNKNOWN

§ Identity

Operator
Country
US
Launch date
2025-06-17
Launch site
AFWTR
Launch vehicle
Mass (kg)
RCS (m²)

Purposes: comms

External: N2YO · Heavens-Above · Gunter

§ Orbital elements

Epoch: 2026-05-24T23:43:56.817120Z

Period
96.11 min
Inclination
70.0008°
Eccentricity
0.0003424
Mean motion
14.98334401 rev/d
Perigee alt
569.7 km
Apogee alt
574.4 km
Semi-major
6,950.2 km
B*
2.0416e-4
RAAN
242.1736°
Arg perigee
266.6839°
Mean anomaly
93.3928°
Rev number
5,265

§ Raw data

STARLINK-345121 64419U 25129H   26144.98885205  .00002344  00000+0  20416-3 0  99932 64419  70.0008 242.1736 0003424 266.6839  93.3928 14.98334401 52658

JSON: /api/v1/satellites/64419 · /tle

For live sub-satellite position, see the globe view (requires WebGL).

§ Visibility from observer

Set your observer location to see the next 7 days of passes ≥ 10°. The values pass through the URL so the page stays shareable.

No JS? Fill the form by hand. The geolocation button needs JavaScript.